Location: Round Knob
(37.2473°N, 88.7376°W)
Time: 21:11:58
(UTC+00:00)

N. Korean satellite - Pass Details

Date: 03 October 2021
Orbit: 450 x 494 km, 97.3° (Epoch: 28 October)

Event Time Altitude Azimuth Distance (km) Brightness Sun altitude
Rises 10:45:40 0° 19° (NNE) 2,561 10.6 -14.1°
Reaches altitude 10° 10:47:49 10° 27° (NNE) 1,682 9.7 -13.7°
Maximum altitude 10:51:15 41° 98° (E) 730 8.1 -13.0°
Drops below altitude 10° 10:54:42 10° 170° (S) 1,684 9.4 -12.3°
Sets 10:56:51 0° 178° (S) 2,565 10.2 -11.9°
